Other Public Products
Issued by NWS Charleston, SC

Current Version | Previous Version | Graphics & Text | Print | Product List | Glossary On
Versions: 1 2 3 4 5 6 7 8 9 10 11 12 13 14 15 16 17 18 19 20 21 22 23 24 25 26 27 28 29 30 31 32 33 34 35 36 37 38 39 40 41 42 43 44 45 46 47 48 49 50
000 FPUS82 KCHS 130711 OPUCHS TEST...KCHS/KSAV Gateway Observations...TEST National Weather Service Charleston SC 200 AM EST WED DEC 13 2017 NOTE: "fair" indicates few or no clouds below 12,000 feet with no significant weather and/or obstructions to visibility. SCZ050-WAZ558-NCZ071-TXZ119-213-PAZ071-DCZ001-FLZ074-172-MI076- NYZ176-178-MAZ016-IL014-TNZ027-NJZ106-GAZ044-MD014-130800- ...Gateway Observations for Charleston International... CITY SKY/WX TMP DP RH WIND PRES REMARKS Chas Airport CLEAR 41 26 55 NW10 29.91R Seattle CLOUDY 42 34 73 NE9 30.42R Charlotte CLEAR 31 3 30 W3 29.88R Dallas DFW CLEAR 40 30 67 SW7 30.13F WCI 35 Dallas Love PTCLDY 44 32 62 S3 30.16F Philladelphia CLEAR 22 0 38 W16G23 29.66R WCI 8 Wash National MOCLDY 24 1 36 NW18G30 29.78R WCI 10 Baltimore PTCLDY 22 1 40 NW16G28 29.74R WCI 8 Miami PTCLDY 63 53 70 NW7G17 29.99R Detroit PTCLDY 15 6 67 W9 29.87R WCI 3 Newark PTCLDY 24 1 36 W18G28 29.53R WCI 10 Laguardia PTCLDY 27 6 41 NW29G35 29.51R WCI 11 J F K MOCLDY 26 6 42 NW23G31 29.52R WCI 11 Boston Logan CLOUDY 33 26 75 W18G31 29.24R WCI 22 Ft. Lauderdale PTCLDY 60 57 89 NW9 29.98R Chicago O`Hare CLOUDY 22 9 57 S5 29.87F WCI 16 Chicago Midway CLOUDY 22 9 57 S6 29.89F WCI 14 Houston Bush CLOUDY 38 32 79 CALM 30.22F Houston Hobby CLOUDY 40 33 76 CALM 30.21F Nashville CLOUDY 26 13 57 S3 30.10F Atlanta CLEAR 33 15 47 NW15G25 30.01R WCI 23 $$ GAZ044-118-TXZ119-213-NCZ071-DCZ001-MDZ014-506-PAZ021-071-NJZ106- NYZ176-178-MAZ106-OHZ011-021-055-MIZ076-KYZ091-ILZ014-INZ047- MNZ060-ONZ431-130800- ...Gateway Observations for Savannah International... CITY SKY/WX TMP DP RH WIND PRES REMARKS Savannah Arpt CLEAR 41 30 65 W8 29.95R Atlanta CLEAR 33 15 47 NW15G25 30.01R WCI 23 Charlotte CLEAR 31 3 30 W3 29.88R Dallas DFW CLEAR 40 30 67 SW7 30.13F WCI 35 Houston Bush CLOUDY 38 32 79 CALM 30.22F Wash National MOCLDY 24 1 36 NW18G30 29.78R WCI 10 Wash Dulles MOCLDY 21 2 43 NW17G28 29.77R WCI 7 Baltimore PTCLDY 22 1 40 NW16G28 29.74R WCI 8 Philadelphia CLEAR 22 0 38 W16G23 29.66R WCI 8 Newark PTCLDY 24 1 36 W18G28 29.53R WCI 10 Laguardia PTCLDY 27 6 41 NW29G35 29.51R WCI 11 J F K MOCLDY 26 6 42 NW23G31 29.52R WCI 11 Boston CLOUDY 33 26 75 W18G31 29.24R WCI 22 Pittsburg CLOUDY 16 7 67 W12G17 29.78R WCI 3 Akron LGT SNOW 15 8 73 W13G22 29.80S VSB 1 WCI 1 Cleveland FLURRIES 19 5 54 W10 29.85S WCI 7 Cincinnati PTCLDY 18 9 68 W7 29.97F WCI 9 Columbus CLOUDY 20 11 67 W10 29.92F WCI 9 Detroit PTCLDY 15 6 67 W9 29.87R WCI 3 Chicago O`Hare CLOUDY 22 9 57 S5 29.87F WCI 16 Minneapolis MOCLDY 26 24 92 SE8 29.51F WCI 18 Indianapolis CLOUDY 19 7 59 SW6 29.97F WCI 11 Toronto Canada MOCLDY 10 5 79 NW9 29.62R WCI -2 $$

USA.gov is the U.S. government's official web portal to all federal, state and local government web resources and services.